Montreal Mirabel, Quebec

12:50 PM EDT on April 26, 2017 (GMT -0400)
Montreal Mirabel

Weather History for CYMX - July, 2013

Change the Weather History Date:

Friday, July 12, 2013

  Actual Average Record
Temperature  
Mean Temperature 65 °F -  
Max Temperature 77 °F 74 °F 87 °F (2005)
Min Temperature 53 °F 57 °F 51 °F (2002)
Growing Degree Days 15 (Base 50)    
Moisture  
Dew Point 54 °F    
Average Humidity 69    
Maximum Humidity 94    
Minimum Humidity 39    
Precipitation  
Precipitation 0.00 in - - ()
Sea Level Pressure  
Sea Level Pressure 30.18 in    
Wind  
Wind Speed 2 mph ()    
Max Wind Speed 7 mph    
Max Gust Speed -    
Visibility 20.0 miles    
Events      
Averages and records for this station are not official NWS values.
T = Trace of Precipitation, MM = Missing Value Source: Averaged Metar Reports

Daily Weather History Graph

Daily Weather History Graph

Search for Another Location

Airport or City:

Trip Planner

Search our weather history database for the weather conditions in past years. The results will help you decide how hot, cold, wet, or windy it might be!

Date:

Astronomy

Jul. 12, 2013 Rise Set
Actual Time 5:18 AM EDT 8:44 PM EDT
Civil Twilight 4:41 AM EDT 9:21 PM EDT
Nautical Twilight 3:53 AM EDT 10:09 PM EDT
Astronomical Twilight 2:50 AM EDT 11:11 PM EDT
Moon 9:48 AM EDT (7/12) 10:36 PM EDT (7/12)
Length of Visible Light 16h 39m
Length of Day
15h 25m
Waxing Crescent, 17% of the Moon is Illuminated
Jul 12
Waxing Crescent
Jul 15
First Quarter
Jul 22
Full
Jul 29
Last Quarter
Aug 6
New

Hourly Weather History & Observations

Time (EDT) Temp. Dew Point Humidity Pressure Visibility Wind Dir Wind Speed Gust Speed Precip Events Conditions
12:00 AM 59.0 °F 53.6 °F 82% 30.09 in 25.0 mi NE 2.3 mph - N/A   Partly Cloudy
1:00 AM 57.2 °F 53.6 °F 88% 30.09 in 25.0 mi Calm Calm - N/A   Partly Cloudy
2:00 AM 55.4 °F 53.6 °F 94% 30.10 in 25.0 mi North 3.5 mph - N/A   Partly Cloudy
3:00 AM 53.6 °F 51.8 °F 94% 30.11 in 25.0 mi Calm Calm - N/A   Partly Cloudy
4:00 AM 53.6 °F 51.8 °F 94% 30.12 in 25.0 mi NNE 2.3 mph - N/A   Partly Cloudy
5:00 AM 53.6 °F 51.8 °F 94% 30.14 in 25.0 mi Calm Calm - N/A   Partly Cloudy
6:00 AM 53.6 °F 50.0 °F 88% 30.16 in 25.0 mi North 2.3 mph - N/A   Scattered Clouds
7:00 AM 59.0 °F 51.8 °F 77% 30.18 in 25.0 mi North 3.5 mph - N/A   Scattered Clouds
8:00 AM 62.6 °F 53.6 °F 72% 30.20 in 25.0 mi ENE 4.6 mph - N/A   Mostly Cloudy
9:00 AM 66.2 °F 53.6 °F 64% 30.20 in 25.0 mi ENE 6.9 mph - N/A   Scattered Clouds
10:00 AM 68.0 °F 55.4 °F 64% 30.22 in 25.0 mi Variable 2.3 mph - N/A   Scattered Clouds
11:00 AM 69.8 °F 55.4 °F 60% 30.22 in 25.0 mi NE 5.8 mph - N/A   Mostly Cloudy
12:00 PM 71.6 °F 53.6 °F 53% 30.22 in 35.0 mi NE 4.6 mph - N/A   Mostly Cloudy
1:00 PM 73.4 °F 51.8 °F 47% 30.21 in 40.0 mi ENE 2.3 mph - N/A   Mostly Cloudy
2:00 PM 75.2 °F 51.8 °F 44% 30.20 in 25.0 mi ENE 3.5 mph - N/A   Mostly Cloudy
3:00 PM 75.2 °F 55.4 °F 50% 30.21 in 35.0 mi ENE 4.6 mph - N/A   Mostly Cloudy
4:00 PM 77.0 °F 51.8 °F 41% 30.19 in 25.0 mi Variable 2.3 mph - N/A   Mostly Cloudy
5:00 PM 77.0 °F 50.0 °F 39% 30.19 in 35.0 mi ENE 5.8 mph - N/A   Mostly Cloudy
6:00 PM 77.0 °F 51.8 °F 41% 30.18 in 40.0 mi ENE 4.6 mph - N/A   Mostly Cloudy
7:00 PM 75.2 °F 57.2 °F 53% 30.18 in 40.0 mi ESE 3.5 mph - N/A   Mostly Cloudy
8:00 PM 71.6 °F 60.8 °F 69% 30.18 in 40.0 mi North 2.3 mph - N/A   Mostly Cloudy
9:00 PM 66.2 °F 57.2 °F 73% 30.20 in 20.0 mi Calm Calm - N/A   Mostly Cloudy
10:00 PM 62.6 °F 55.4 °F 77% 30.22 in 20.0 mi Variable 2.3 mph - N/A   Mostly Cloudy
11:00 PM 59.0 °F 57.2 °F 94% 30.22 in 20.0 mi NW 2.3 mph - N/A   Mostly Cloudy